CZ-6A DEB, 54982

Orbit data source: Space-Track

CZ-6A DEB, 54982 is space debris in SSO originally from a launch on Fri, 11 Nov 2022 UTC launched from the Taiyaun Space Center, China (TSC). Debris objects in space refer to the collection of defunct objects orbiting the Earth. Examples of debris include non-operational satellites, rocket bodies, and fragments generated from explosions, collisions, or faulty payload assembly.

Loading next visibility...
Identifier
54982, 2022-151TX
Orbit
SSO
Country
Flag of CNCN / PRC
Related business
Manufacturer
SAST
Mission
Spacecraft
Bus & Motor
Unknown
Mass
Unknown
Launch date (UTC)
2022-11-11 (4 years ago)
Launch vehicle
Unknown
Launch site
Taiyaun Space Center, China (TSC)
Object type
Payload
Rocket body
Debris
Shape & HBR
Unknown shape, 0.1 m
Radar Cross Section
Small (<0.1 m²)

Expand to show TLE details & history
Last TLE update: 1 day ago

TLE from 1 day ago
0 CZ-6A DEB
1 54982U 22151TX  26235.31650152  .00005053  00000-0  11862-2 0  9993
2 54982  98.5819 266.3526 0054439 166.5737 193.6922 14.54012259197822
Epoch: 2026-08-23T07:35Z
TLE epoch observation values (Epoch: 2026-08-23T07:35:45.731Z)
Latitude
-0°
Longitude
-179.20225°
Altitude
753.063 km
Speed
7.458 km/s
True Right ascension
17h 45m 24s
True Declination
0° 00' 00"
Sunlit
Object was in daylight at epoch
Visualization orbit readout
Latitude
Unknown
Longitude
Unknown
Altitude
Unknown
Speed
Unknown
Apparent Right ascension
Unknown
Apparent Declination
Unknown
Sunlit
N/A
Visualization observer readout
Local Sidereal Time
06:29:40
Azimuth
Unknown
Elevation
Unknown
Doppler factor
Unknown
Orbital elements
Apogee altitude
748.267 km
Perigee altitude
671.096 km
Semi-major axis
7,087.818 km
Eccentricity
0.00544
Inclination
98.5819°
RAAN
266.3526°
Arg. of periapsis
166.5737°
True anomaly
193.54551°
Mean anomaly
193.6922°
Eccentric anomaly
193.61876°
Mean motion
3.63726 °/min
Orbital period
98.98 mins
BSTAR
0.0011862
Loading maneuver chart data...
Computing Atmospheric mass density...
Loading historical data...
Loading historical data...
Loading historical data...
Loading historical data...
Loading historical data...
Loading historical data...
Loading historical data...

Documentation

Showing up to 5 results
|